Location: Cherryland
(37.6794°N, 122.1033°W)
Time: 13:49:59
(UTC+00:00)

CZ-2D R/B - Pass Details

Date: 14 December 2025
Orbit: 397 x 404 km, 97.4° (Epoch: 17 January)

Event Time Altitude Azimuth Distance (km) Brightness Sun altitude
Rises 14:44:14 0° 8° (N) 2,367 6.4 -6.4°
Reaches altitude 10° 14:46:14 10° 6° (N) 1,499 5.4 -6.1°
Maximum altitude 14:49:25 66° 284° (WNW) 457 2.7 -5.5°
Drops below altitude 10° 14:52:34 10° 201° (SSW) 1,483 5.6 -4.9°
Sets 14:54:33 0° 198° (SSW) 2,339 6.6 -4.6°
